Wind_Speed
6 6 5 5 4 4 3 2 1 1 2 3 3 4 4 4 4 4 4 4 4 5 5 5 5 5 5 4 4 4 4 4 5 5 4 3 3 5 6 8 8 9 9
7 6 6 6 5 5 4 3 2 2 2 3 4 4 5 5 5 5 5 6 6 6 6 6 6 5 5 5 4 4 3 4 4 4 4 3 4 5 7 8 9 9 9
8 7 7 7 6 6 5 4 3 2 3 4 4 5 5 6 6 7 7 7 7 7 7 7 6 6 6 6 5 4 3 3 3 4 3 3 4 5 7 9 9 9 9
8 8 8 8 7 6 5 4 4 3 3 4 5 6 6 7 8 7 8 8 8 8 8 8 7 7 7 7 6 5 4 3 2 2 3 4 5 6 7 9 10 9 9
9 9 9 9 8 7 6 5 4 4 4 5 6 6 7 8 8 8 8 8 9 9 9 9 8 8 8 7 7 6 5 4 2 1 2 3 4 5 7 8 9 9 9
10 10 10 10 9 8 7 6 5 4 5 5 6 6 7 7 8 8 9 9 10 10 10 10 9 9 9 8 8 6 6 4 3 2 1 2 4 5 6 7 8 8 9
10 11 11 11 10 9 8 7 6 5 5 5 6 6 7 8 9 9 10 10 10 10 11 11 10 10 10 9 8 7 6 5 4 4 3 3 5 5 7 8 8 9 9
11 11 12 12 11 10 9 8 6 5 6 6 6 7 8 8 9 10 10 10 10 11 11 11 11 11 10 10 8 8 7 7 6 5 5 6 6 6 7 8 9 9 10
13 13 13 13 13 11 9 8 7 6 6 6 7 8 8 9 9 10 10 10 10 10 10 10 10 10 10 10 9 8 8 8 7 6 6 7 7 8 8 9 9 9 10
13 14 15 15 14 12 10 8 7 7 7 7 7 8 8 9 10 10 10 10 10 9 9 9 10 10 10 10 9 8 8 8 8 7 7 7 7 8 9 9 10 10 10
14 15 16 16 15 13 11 9 9 8 8 8 8 8 9 9 10 10 9 9 9 8 8 8 9 10 10 10 9 8 7 8 8 9 8 7 7 8 9 9 9 10 10
15 16 17 17 16 14 12 11 10 9 9 8 8 8 9 9 9 9 8 8 8 8 8 8 8 9 10 10 9 8 7 7 7 7 7 6 6 7 8 9 9 10 11
19 19 19 19 18 16 14 12 11 11 10 9 8 8 9 8 8 8 7 7 7 7 7 7 8 8 9 9 9 8 7 7 6 6 5 5 6 6 7 8 8 9 10
20 20 21 23 21 18 16 13 11 11 10 9 8 8 8 8 7 6 6 5 6 6 6 6 7 7 7 7 7 7 6 6 6 5 5 6 6 6 6 6 7 8 9
20 20 20 23 22 20 17 14 12 11 11 9 8 8 8 7 6 5 5 5 5 5 5 5 5 6 6 5 5 5 5 5 6 5 4 4 5 5 5 5 6 7 8
20 21 22 23 23 21 18 16 14 13 11 10 8 8 7 6 5 5 4 4 3 3 3 3 3 3 4 4 3 3 3 4 4 4 3 3 3 4 4 5 6 6 7
18 21 22 23 23 21 19 16 15 14 12 9 8 7 6 5 4 3 3 3 3 2 2 2 2 2 2 2 2 1 1 2 2 3 2 2 2 3 4 5 5 5 6
17 19 21 22 21 20 18 16 15 13 11 10 8 7 6 5 4 2 2 2 1 1 1 1 1 1 1 1 0 1 1 1 1 2 1 1 1 1 3 4 4 4 5
16 20 20 21 20 19 18 16 15 13 12 10 9 7 6 5 4 3 2 1 1 1 1 1 1 2 1 1 1 1 1 2 2 1 1 1 1 2 2 3 3 4 5
14 18 20 20 20 19 18 17 15 13 12 10 9 8 7 6 5 4 3 2 2 2 3 3 3 3 3 3 2 2 2 2 2 2 2 1 1 1 0 1 2 3 4
14 15 19 19 19 18 17 17 15 14 12 11 10 9 8 7 6 5 4 4 4 4 5 5 5 5 4 4 4 4 3 3 3 2 1 1 1 1 1 2 2 3 4
12 14 17 18 18 17 17 16 15 13 12 11 11 10 9 8 7 6 6 5 5 5 5 5 5 5 4 4 3 3 3 3 3 2 2 2 2 2 2 3 3 4 5
9 11 14 18 16 16 16 15 14 13 12 11 11 11 10 9 8 8 7 7 6 6 5 5 4 4 4 3 3 3 2 2 2 2 2 2 3 3 3 3 4 5 5
8 11 13 16 17 17 16 15 14 14 13 12 12 11 11 10 9 9 8 8 7 6 5 4 3 3 3 2 2 1 1 0 1 2 2 3 4 4 4 4 5 5 6
8 11 12 14 17 17 16 15 14 14 13 13 12 12 11 11 11 11 10 9 8 7 6 5 4 3 3 3 2 2 2 3 4 4 5 5 5 5 5 6 6 7 8
7 9 11 14 15 16 15 15 14 14 14 13 13 13 12 12 12 12 12 11 10 9 8 7 6 6 6 5 5 5 6 6 7 8 8 8 8 7 7 7 8 9 10
Wind_Direction
189 183 180 177 178 177 175 181 212 288 304 308 308 300 298 298 299 305 310 313 315 318 324 329 337 343 348 355 3 15 22 27 28 31 33 61 107 127 137 137 139 138 135
195 192 189 187 188 187 185 192 217 265 284 290 296 295 297 298 297 299 302 306 307 307 309 313 320 324 328 334 342 357 10 20 24 28 42 76 113 134 143 141 140 140 136
203 197 193 191 194 197 198 204 223 255 273 277 288 292 296 297 297 297 297 300 301 300 300 303 310 313 314 318 326 337 346 2 13 32 60 88 120 133 141 143 145 147 142
209 202 195 193 197 200 200 201 217 241 261 273 282 289 294 295 295 295 294 296 297 296 297 298 301 303 304 307 312 319 324 331 354 37 76 98 120 128 139 146 150 150 147
221 211 202 198 199 199 196 196 207 235 260 274 278 285 292 294 293 292 292 293 294 293 294 294 294 296 297 297 300 303 306 308 305 345 99 122 133 137 143 148 154 154 156
223 215 205 202 200 197 197 199 207 236 262 272 274 282 287 291 292 293 293 293 294 293 291 288 287 289 290 289 289 290 294 298 279 259 207 160 156 157 158 157 158 161 163
220 215 205 202 200 201 203 207 215 236 253 264 275 283 287 291 293 295 296 295 294 293 291 287 285 283 283 283 283 281 276 276 271 249 226 199 190 178 173 170 168 171 172
215 210 205 202 203 204 207 213 221 234 246 258 274 284 289 292 295 297 298 296 295 295 293 289 284 281 280 278 279 274 267 266 260 247 226 213 203 193 185 182 178 179 181
213 208 208 204 205 206 208 214 222 235 247 260 274 284 290 295 297 298 297 297 297 295 293 289 284 282 279 278 278 271 261 259 259 258 232 220 208 199 196 195 191 188 189
211 211 210 205 205 207 210 215 226 238 250 263 276 285 292 295 298 298 298 298 297 294 291 288 284 283 281 279 277 270 261 257 259 247 242 230 215 207 203 204 202 197 196
215 213 212 209 208 208 210 218 229 242 254 264 275 284 291 293 295 299 300 297 296 294 292 289 283 282 280 279 277 269 260 256 257 248 242 230 218 212 208 205 207 206 203
216 214 211 210 209 211 215 222 229 243 255 262 272 284 290 291 294 300 298 294 293 292 292 290 287 285 282 278 273 266 255 253 255 253 237 223 222 214 210 208 209 211 210
217 213 213 210 210 211 215 221 229 242 252 260 268 281 286 288 293 297 294 291 291 290 291 288 285 289 285 277 271 266 249 247 247 249 241 231 222 216 211 210 211 214 215
217 214 213 212 212 211 214 220 230 241 251 257 263 272 280 287 290 295 294 291 290 293 292 284 283 286 284 277 271 264 253 241 245 244 246 232 225 219 215 213 216 219 221
216 215 214 214 213 213 213 221 229 240 248 252 262 267 271 277 281 286 288 287 293 297 292 288 287 287 283 283 276 265 248 231 239 245 234 215 213 216 216 220 223 225 225
217 217 217 216 212 213 215 221 230 240 247 250 255 262 266 270 270 268 273 283 291 292 289 293 294 291 287 286 290 284 248 226 232 235 209 194 206 215 218 225 229 231 232
221 216 210 209 212 213 215 219 227 236 240 241 245 251 252 255 260 260 256 271 280 276 274 273 273 276 291 291 289 295 259 219 220 210 203 212 220 215 216 222 226 230 233
224 209 204 208 210 210 211 216 222 229 228 233 235 232 230 239 253 247 240 252 238 230 234 231 224 222 250 307 347 32 85 135 149 171 182 204 215 210 211 215 223 230 237
215 203 204 207 206 208 212 214 216 221 223 225 224 219 220 227 235 222 211 193 178 180 182 158 150 148 138 114 86 63 74 104 114 135 170 179 174 189 208 225 228 234 245
204 204 202 204 205 209 209 208 212 216 219 220 219 212 215 221 215 205 186 163 150 146 136 127 122 124 120 107 90 80 75 82 96 94 97 95 101 130 233 240 246 249 255
195 198 199 199 202 202 203 204 207 211 214 218 214 211 212 210 204 193 180 162 147 138 131 122 118 117 116 109 100 93 87 83 85 81 70 52 38 9 347 313 285 273 266
189 190 190 190 193 197 199 201 202 208 212 211 209 207 205 205 201 191 177 167 157 147 139 130 125 122 121 116 108 101 95 88 82 74 51 23 1 343 323 302 289 281 278
174 181 185 189 188 189 194 194 197 201 202 206 205 201 203 204 201 194 184 178 171 163 153 143 137 134 132 128 120 112 103 90 67 51 22 360 347 337 318 302 294 287 286
170 176 181 186 184 184 188 192 195 198 202 204 203 202 206 206 201 195 190 189 187 186 182 174 173 169 160 158 154 141 113 24 345 335 331 329 325 319 312 301 292 289 289
160 172 177 182 185 187 189 194 199 203 206 206 204 204 207 205 202 200 200 202 202 204 209 213 219 221 216 224 243 261 273 286 297 302 304 307 308 306 302 296 291 289 288
144 161 170 178 184 188 194 199 204 207 208 210 208 208 209 208 209 209 212 214 219 224 230 236 242 246 249 255 263 270 276 281 286 291 294 297 298 297 296 295 292 288 286
Height
5896 5897 5898 5899 5900 5901 5902 5903 5904 5905 5905 5905 5905 5905 5905 5905 5904 5903 5903 5902 5901 5901 5900 5899 5898 5898 5897 5897 5896 5896 5895 5894 5894 5893 5892 5891 5891 5890 5891 5891 5892 5892 5893
5895 5896 5897 5898 5900 5901 5902 5903 5904 5904 5905 5905 5905 5905 5905 5905 5904 5903 5903 5902 5901 5900 5900 5899 5898 5898 5897 5897 5896 5896 5895 5895 5894 5893 5892 5892 5891 5891 5891 5892 5893 5894 5895
5894 5895 5896 5897 5898 5900 5901 5902 5903 5904 5904 5904 5905 5905 5905 5904 5904 5903 5902 5902 5901 5900 5899 5899 5898 5897 5897 5896 5896 5896 5895 5895 5894 5893 5893 5892 5892 5892 5892 5892 5893 5895 5896
5893 5894 5895 5896 5897 5898 5900 5901 5902 5903 5903 5904 5904 5904 5904 5904 5903 5903 5902 5901 5901 5900 5899 5898 5897 5897 5896 5896 5895 5895 5895 5894 5894 5893 5893 5893 5893 5893 5893 5894 5894 5896 5897
5891 5892 5894 5895 5896 5897 5899 5900 5901 5902 5903 5903 5903 5904 5903 5903 5903 5902 5902 5901 5900 5899 5898 5898 5897 5896 5895 5895 5895 5894 5894 5894 5894 5893 5893 5893 5893 5894 5894 5895 5895 5896 5897
5889 5890 5892 5893 5895 5896 5898 5899 5900 5901 5902 5902 5902 5903 5903 5902 5902 5901 5901 5900 5899 5898 5897 5897 5896 5895 5895 5894 5894 5894 5894 5894 5893 5893 5893 5894 5894 5894 5895 5895 5896 5897 5898
5886 5888 5890 5891 5893 5895 5897 5898 5899 5900 5901 5901 5902 5902 5902 5901 5901 5900 5899 5899 5898 5897 5896 5895 5894 5894 5893 5893 5893 5893 5893 5893 5893 5893 5893 5893 5894 5894 5894 5895 5896 5897 5899
5883 5885 5888 5890 5892 5894 5895 5897 5898 5899 5900 5900 5900 5901 5900 5900 5899 5898 5898 5897 5896 5895 5894 5894 5893 5892 5891 5891 5892 5892 5892 5892 5892 5892 5892 5893 5893 5894 5894 5895 5896 5897 5898
5880 5883 5886 5888 5890 5892 5894 5895 5897 5897 5898 5899 5899 5899 5899 5898 5897 5897 5896 5895 5895 5894 5893 5892 5891 5890 5889 5890 5890 5890 5890 5891 5891 5891 5891 5892 5892 5893 5894 5895 5896 5896 5898
5877 5880 5883 5886 5888 5890 5892 5894 5895 5896 5896 5897 5897 5897 5897 5896 5896 5895 5894 5894 5893 5892 5891 5890 5889 5888 5888 5888 5888 5889 5889 5889 5889 5890 5890 5891 5892 5892 5893 5894 5895 5896 5897
5874 5877 5881 5883 5886 5888 5890 5892 5893 5894 5895 5895 5896 5896 5895 5895 5894 5893 5893 5892 5891 5890 5889 5889 5888 5887 5886 5886 5886 5887 5888 5888 5888 5888 5889 5890 5890 5891 5892 5894 5895 5896 5897
5872 5875 5878 5881 5884 5886 5888 5890 5891 5892 5893 5893 5894 5894 5893 5893 5892 5892 5891 5890 5889 5889 5888 5887 5886 5885 5885 5884 5884 5885 5886 5886 5886 5887 5887 5888 5889 5890 5891 5892 5893 5894 5895
5868 5871 5874 5878 5881 5883 5886 5887 5889 5890 5890 5891 5892 5892 5892 5891 5891 5890 5890 5889 5888 5887 5887 5886 5885 5884 5883 5882 5882 5883 5884 5885 5885 5885 5886 5887 5888 5889 5890 5891 5892 5893 5894
5864 5867 5871 5874 5877 5880 5883 5885 5886 5887 5888 5889 5890 5890 5890 5890 5889 5889 5888 5887 5887 5886 5885 5885 5884 5883 5882 5881 5881 5881 5882 5883 5884 5884 5884 5886 5887 5888 5889 5889 5890 5891 5892
5859 5863 5867 5871 5874 5876 5880 5883 5884 5885 5886 5887 5887 5888 5888 5888 5888 5887 5887 5886 5886 5885 5884 5884 5883 5882 5881 5880 5880 5880 5881 5882 5883 5883 5884 5884 5885 5886 5887 5888 5888 5889 5890
5854 5858 5862 5866 5869 5873 5877 5880 5882 5883 5883 5884 5885 5886 5886 5886 5886 5886 5886 5885 5885 5884 5883 5883 5882 5881 5880 5880 5879 5879 5879 5881 5882 5882 5883 5884 5884 5885 5885 5886 5887 5887 5888
5850 5853 5857 5862 5866 5869 5873 5877 5879 5880 5881 5882 5883 5883 5884 5885 5885 5885 5885 5884 5884 5883 5882 5882 5881 5881 5880 5880 5879 5879 5879 5880 5881 5882 5882 5883 5883 5883 5884 5884 5885 5886 5887
5845 5849 5854 5859 5863 5867 5871 5874 5876 5877 5878 5880 5881 5881 5882 5883 5884 5884 5884 5883 5883 5882 5882 5881 5881 5881 5880 5880 5879 5879 5879 5880 5880 5881 5881 5882 5882 5882 5883 5883 5884 5885 5885
5840 5845 5851 5856 5860 5864 5868 5870 5873 5874 5876 5877 5879 5880 5881 5882 5882 5883 5883 5882 5882 5882 5881 5881 5881 5881 5880 5880 5880 5879 5879 5880 5880 5881 5881 5881 5882 5882 5882 5883 5883 5883 5884
5838 5842 5848 5852 5857 5862 5865 5868 5870 5872 5874 5875 5877 5878 5879 5881 5881 5882 5882 5882 5881 5881 5881 5881 5881 5881 5881 5880 5880 5880 5880 5880 5880 5881 5881 5881 5881 5881 5882 5882 5882 5882 5882
5837 5841 5846 5850 5855 5859 5863 5865 5868 5870 5872 5873 5875 5876 5878 5879 5880 5881 5881 5881 5881 5881 5881 5881 5881 5881 5881 5881 5881 5881 5881 5881 5881 5881 5881 5881 5881 5881 5881 5881 5881 5881 5881
5836 5840 5844 5848 5853 5857 5860 5863 5866 5868 5870 5871 5873 5875 5876 5878 5879 5880 5880 5881 5881 5881 5881 5881 5882 5881 5881 5881 5881 5881 5881 5882 5881 5881 5881 5881 5881 5880 5880 5880 5880 5880 5879
5837 5839 5843 5847 5851 5854 5858 5861 5864 5866 5868 5870 5872 5874 5875 5876 5877 5878 5879 5880 5881 5881 5881 5881 5882 5882 5882 5882 5882 5882 5881 5881 5881 5881 5881 5881 5880 5880 5879 5879 5879 5878 5878
5837 5839 5842 5845 5849 5852 5856 5859 5862 5864 5866 5869 5870 5872 5874 5875 5876 5877 5878 5879 5880 5880 5881 5881 5881 5881 5881 5882 5882 5881 5881 5881 5881 5880 5880 5880 5879 5879 5878 5877 5877 5876 5876
5837 5840 5842 5844 5848 5851 5855 5858 5860 5863 5865 5867 5869 5870 5872 5873 5875 5876 5877 5878 5879 5879 5880 5880 5880 5880 5881 5881 5881 5880 5880 5880 5880 5879 5879 5878 5878 5877 5876 5876 5875 5874 5873
5839 5840 5842 5844 5847 5850 5853 5856 5859 5861 5863 5865 5867 5868 5870 5871 5873 5874 5875 5876 5877 5877 5878 5878 5878 5879 5879 5879 5879 5879 5879 5878 5878 5877 5877 5876 5875 5875 5874 5873 5873 5872 5871